Total_Precipitation_Accumulation
0.01 0.00 0.00 0.00 0.00 0.00 0.00 0.00 0.00 0.01 0.09 0.09 0.12 0.17 0.25 0.28 0.24 0.21 0.23 0.22 0.19 0.34 0.14 0.23 0.21 0.14 0.06 0.11 0.05 0.08 0.16 0.17 0.08 0.02 0.01 0.03 0.07 0.36 0.16 0.03 0.03 0.02 0.16
0.05 0.00 0.00 0.00 0.00 0.00 0.00 0.00 0.00 0.00 0.01 0.05 0.07 0.10 0.21 0.22 0.27 0.18 0.09 0.09 0.08 0.16 0.20 0.31 0.14 0.14 0.13 0.06 0.04 0.04 0.11 0.18 0.07 0.03 0.00 0.00 0.00 0.00 0.01 0.02 0.02 0.02 0.03
0.05 0.08 0.01 0.00 0.00 0.00 0.00 0.00 0.00 0.00 0.01 0.04 0.02 0.02 0.04 0.10 0.13 0.10 0.07 0.05 0.04 0.06 0.13 0.22 0.16 0.13 0.13 0.03 0.08 0.03 0.05 0.05 0.10 0.09 0.02 0.00 0.00 0.00 0.01 0.07 0.14 0.06 0.03
0.07 0.11 0.06 0.11 0.06 0.00 0.00 0.00 0.00 0.00 0.00 0.00 0.00 0.00 0.02 0.09 0.09 0.04 0.01 0.01 0.00 0.01 0.03 0.11 0.12 0.13 0.14 0.11 0.08 0.10 0.17 0.11 0.02 0.03 0.01 0.00 0.00 0.05 0.16 0.28 0.35 0.20 0.03
0.22 0.24 0.15 0.13 0.10 0.03 0.01 0.00 0.00 0.00 0.00 0.00 0.00 0.00 0.00 0.01 0.01 0.02 0.04 0.02 0.05 0.04 0.04 0.06 0.02 0.04 0.07 0.06 0.04 0.08 0.15 0.15 0.13 0.11 0.10 0.04 0.06 0.21 0.39 0.41 0.41 0.19 0.11
0.15 0.15 0.17 0.14 0.07 0.04 0.04 0.04 0.00 0.00 0.00 0.00 0.00 0.00 0.00 0.00 0.00 0.02 0.07 0.12 0.17 0.15 0.11 0.08 0.04 0.07 0.03 0.06 0.11 0.13 0.16 0.16 0.16 0.34 0.24 0.15 0.15 0.21 0.29 0.32 0.38 0.53 0.20
0.17 0.14 0.16 0.14 0.15 0.08 0.11 0.07 0.01 0.00 0.02 0.00 0.00 0.00 0.00 0.00 0.00 0.01 0.03 0.05 0.08 0.08 0.07 0.08 0.08 0.04 0.05 0.07 0.08 0.34 0.35 0.16 0.11 0.09 0.05 0.06 0.08 0.11 0.14 0.16 0.19 0.25 0.23
0.14 0.15 0.20 0.18 0.13 0.15 0.16 0.09 0.06 0.01 0.00 0.04 0.02 0.00 0.00 0.00 0.00 0.02 0.01 0.01 0.03 0.03 0.01 0.03 0.05 0.06 0.12 0.07 0.09 0.09 0.09 0.08 0.07 0.05 0.02 0.02 0.01 0.01 0.02 0.03 0.04 0.05 0.04
0.60 0.45 0.36 0.32 0.23 0.20 0.18 0.11 0.10 0.11 0.03 0.05 0.11 0.07 0.10 0.10 0.05 0.14 0.07 0.07 0.04 0.01 0.04 0.12 0.13 0.10 0.12 0.14 0.10 0.08 0.08 0.08 0.10 0.05 0.04 0.02 0.00 0.00 0.00 0.00 0.01 0.01 0.01
1.96 1.25 0.83 0.69 0.67 0.50 0.38 0.27 0.25 0.23 0.18 0.23 0.43 0.71 0.87 0.51 0.37 0.34 0.25 0.18 0.15 0.19 0.13 0.16 0.26 0.24 0.19 0.20 0.11 0.05 0.09 0.12 0.03 0.00 0.00 0.00 0.00 0.00 0.00 0.00 0.00 0.00 0.00
1.26 1.77 1.95 1.35 1.29 1.00 0.93 0.80 0.75 0.71 0.62 0.80 1.21 1.22 0.92 0.93 0.93 0.76 0.69 0.40 0.30 0.24 0.16 0.10 0.04 0.11 0.16 0.14 0.20 0.12 0.01 0.00 0.00 0.00 0.01 0.02 0.02 0.00 0.00 0.00 0.00 0.00 0.01
0.65 0.90 1.29 1.59 2.05 2.43 1.97 1.35 1.13 1.10 1.40 1.50 1.60 1.76 1.99 1.89 1.74 1.57 1.50 0.83 0.49 0.32 0.19 0.22 0.19 0.23 0.22 0.19 0.13 0.04 0.03 0.04 0.04 0.05 0.04 0.05 0.02 0.00 0.00 0.01 0.02 0.03 0.02
0.59 0.57 0.50 0.59 0.87 1.35 1.67 2.09 2.27 1.61 1.41 1.55 1.86 2.18 2.21 1.70 1.09 0.66 0.53 0.46 0.45 0.35 0.21 0.30 0.34 0.25 0.18 0.12 0.11 0.09 0.05 0.04 0.05 0.03 0.03 0.03 0.01 0.00 0.01 0.01 0.02 0.03 0.03
0.13 0.15 0.12 0.17 0.38 0.53 0.74 1.01 1.46 2.14 2.17 2.01 1.87 1.76 1.65 1.29 0.99 0.75 0.65 0.57 0.46 0.35 0.33 0.28 0.18 0.12 0.12 0.12 0.13 0.14 0.10 0.08 0.07 0.06 0.04 0.02 0.00 0.00 0.01 0.01 0.03 0.04 0.04
0.06 0.06 0.03 0.10 0.27 0.35 0.50 0.69 0.67 0.95 1.29 2.03 2.74 2.98 2.09 1.62 1.35 1.08 0.61 0.51 0.38 0.29 0.17 0.08 0.07 0.09 0.12 0.14 0.14 0.13 0.12 0.11 0.08 0.07 0.02 0.01 0.01 0.02 0.02 0.03 0.05 0.09 0.08
0.02 0.01 0.03 0.08 0.16 0.36 0.75 0.79 0.85 0.93 1.11 1.05 1.11 1.14 0.84 0.50 0.29 0.29 0.12 0.09 0.09 0.07 0.05 0.02 0.00 0.01 0.01 0.01 0.01 0.01 0.01 0.01 0.01 0.00 0.01 0.02 0.01 0.02 0.04 0.08 0.07 0.07 0.03
0.01 0.00 0.01 0.08 0.10 0.14 0.26 0.29 0.32 0.40 0.46 0.39 0.32 0.22 0.15 0.11 0.09 0.07 0.05 0.05 0.04 0.02 0.00 0.00 0.00 0.00 0.00 0.00 0.00 0.00 0.00 0.00 0.00 0.01 0.01 0.01 0.02 0.05 0.04 0.03 0.04 0.05 0.03
0.00 0.00 0.00 0.04 0.10 0.09 0.08 0.16 0.30 0.47 0.20 0.08 0.04 0.02 0.02 0.03 0.05 0.04 0.02 0.01 0.01 0.01 0.00 0.00 0.00 0.00 0.00 0.00 0.00 0.00 0.00 0.00 0.01 0.01 0.00 0.01 0.01 0.03 0.01 0.01 0.01 0.03 0.04
0.00 0.00 0.00 0.00 0.05 0.10 0.05 0.04 0.02 0.02 0.03 0.01 0.01 0.01 0.02 0.02 0.03 0.05 0.04 0.01 0.00 0.00 0.00 0.00 0.00 0.00 0.00 0.00 0.00 0.00 0.00 0.00 0.00 0.01 0.00 0.00 0.00 0.00 0.00 0.01 0.01 0.03 0.03
0.00 0.00 0.01 0.00 0.01 0.03 0.08 0.04 0.02 0.01 0.00 0.00 0.00 0.00 0.00 0.00 0.01 0.00 0.00 0.00 0.00 0.00 0.00 0.00 0.00 0.00 0.00 0.00 0.00 0.00 0.00 0.00 0.00 0.00 0.00 0.00 0.00 0.00 0.00 0.01 0.01 0.00 0.01
0.01 0.02 0.03 0.02 0.01 0.02 0.05 0.04 0.04 0.06 0.03 0.00 0.00 0.00 0.01 0.00 0.00 0.00 0.00 0.00 0.00 0.00 0.00 0.00 0.00 0.00 0.00 0.00 0.00 0.00 0.00 0.00 0.00 0.00 0.00 0.00 0.00 0.00 0.00 0.00 0.00 0.00 0.00
0.02 0.03 0.03 0.04 0.04 0.02 0.04 0.05 0.04 0.05 0.04 0.02 0.00 0.01 0.01 0.01 0.00 0.00 0.00 0.00 0.00 0.00 0.00 0.00 0.00 0.00 0.00 0.00 0.00 0.00 0.00 0.00 0.00 0.00 0.00 0.00 0.00 0.00 0.00 0.00 0.00 0.00 0.00
0.03 0.05 0.07 0.06 0.05 0.03 0.05 0.07 0.07 0.06 0.05 0.04 0.01 0.01 0.01 0.01 0.01 0.00 0.00 0.00 0.00 0.00 0.00 0.00 0.00 0.00 0.00 0.00 0.00 0.00 0.00 0.00 0.00 0.00 0.00 0.00 0.00 0.00 0.00 0.00 0.00 0.00 0.00
0.08 0.08 0.10 0.10 0.06 0.09 0.06 0.07 0.09 0.09 0.07 0.07 0.05 0.05 0.03 0.02 0.01 0.04 0.07 0.03 0.00 0.00 0.00 0.00 0.00 0.00 0.00 0.00 0.00 0.00 0.00 0.00 0.00 0.00 0.00 0.00 0.00 0.00 0.00 0.00 0.00 0.00 0.00
0.12 0.20 0.16 0.18 0.16 0.16 0.17 0.15 0.14 0.12 0.10 0.11 0.09 0.06 0.10 0.12 0.11 0.09 0.10 0.10 0.07 0.03 0.02 0.03 0.01 0.00 0.00 0.00 0.00 0.00 0.00 0.00 0.00 0.00 0.00 0.00 0.00 0.00 0.00 0.00 0.00 0.00 0.00
0.24 0.30 0.25 0.27 0.22 0.29 0.31 0.21 0.26 0.32 0.24 0.16 0.16 0.21 0.10 0.14 0.18 0.12 0.08 0.05 0.11 0.10 0.05 0.04 0.06 0.06 0.02 0.01 0.00 0.00 0.00 0.00 0.00 0.00 0.00 0.00 0.00 0.00 0.00 0.00 0.00 0.00 0.00